User: anonymous
Location: Caltech
(34.1382°N, 118.1253°W)
Time: 19:32:06
(UTC-07:00)
Language:

OPAL - Orbit

View from above orbital plane
View from above orbital plane
View from above satellite
View from above satellite

Ground track
Ground track

The orbit data is extracted from the following two-line orbital elements,

1 26063U 00004C   14204.10259236 -.00000007  00000-0  17679-4 0   151
2 26063 100.2169 356.7712 0037131 057.7610 302.7161 14.36380580759188
Epoch (UTC): 23 July 2014 02:27:43
Eccentricity: 0.0037131
inclination: 100.2169°
perigee height: 744 km
apogee height: 797 km
right ascension of ascending node: 356.7712°
argument of perigee: 57.7610°
revolutions per day: 14.36380580
mean anomaly at epoch: 302.7161°
orbit number at epoch: 75918

The dashed part of the orbit path shows where the satellite is in the earth's shadow,  

DLR